Location: Schommer Observatory
(40.5200°N, 74.4500°W)
Time: 20:22:01
(UTC-04:00)

Hubble Space Telescope - Pass Details

Date: 08 October 2017
Orbit: 537 x 541 km, 28.5° (Epoch: 17 October)

Event Time Altitude Azimuth Distance (km) Brightness Sun altitude
Exits shadow 05:27:11 14° 192° (SSW) 1,561 2.9 -18.7°
Maximum altitude 05:27:27 14° 188° (S) 1,557 3.0 -18.7°
Drops below altitude 10° 05:29:35 10° 156° (SSE) 1,787 3.6 -18.3°
Sets 05:32:47 0° 131° (SE) 2,678 5.0 -17.7°
